TimeEST,TemperatureF,Dew PointF,Humidity,Sea Level PressureIn,VisibilityMPH,Wind Direction,Wind SpeedMPH,Gust SpeedMPH,PrecipitationIn,Events,Conditions,WindDirDegrees,DateUTC
12:55 AM,36.5,36.0,98,30.39,5.0,Calm,Calm,-,N/A,,Scattered Clouds,0,2013-01-09 05:55:00
1:15 AM,36.0,35.4,98,30.38,7.0,Calm,Calm,-,N/A,,Mostly Cloudy,0,2013-01-09 06:15:00
1:35 AM,34.9,34.2,97,30.38,4.0,Calm,Calm,-,N/A,,Scattered Clouds,0,2013-01-09 06:35:00
1:55 AM,35.1,34.7,99,30.39,7.0,Calm,Calm,-,N/A,,Mostly Cloudy,0,2013-01-09 06:55:00
2:15 AM,36.7,36.3,99,30.40,7.0,Calm,Calm,-,N/A,,Overcast,0,2013-01-09 07:15:00
2:35 AM,38.1,37.6,98,30.39,7.0,Calm,Calm,-,N/A,,Overcast,0,2013-01-09 07:35:00
2:55 AM,37.6,36.9,97,30.39,10.0,Calm,Calm,-,N/A,,Overcast,0,2013-01-09 07:55:00
3:15 AM,35.4,34.3,96,30.39,5.0,Calm,Calm,-,N/A,,Scattered Clouds,0,2013-01-09 08:15:00
3:35 AM,36.5,36.0,98,30.39,7.0,Calm,Calm,-,N/A,,Mostly Cloudy,0,2013-01-09 08:35:00
3:55 AM,34.3,33.8,98,30.39,3.0,Calm,Calm,-,N/A,,Scattered Clouds,0,2013-01-09 08:55:00
4:15 AM,34.7,34.2,98,30.39,3.0,Calm,Calm,-,N/A,,Clear,0,2013-01-09 09:15:00
4:35 AM,34.3,34.0,99,30.38,3.0,Calm,Calm,-,N/A,,Clear,0,2013-01-09 09:35:00
4:55 AM,32.5,32.2,99,30.38,4.0,Calm,Calm,-,N/A,,Clear,0,2013-01-09 09:55:00
5:15 AM,33.4,33.1,99,30.38,4.0,Calm,Calm,-,N/A,,Clear,0,2013-01-09 10:15:00
5:35 AM,34.7,34.7,100,30.38,4.0,Calm,Calm,-,N/A,,Clear,0,2013-01-09 10:35:00
5:55 AM,32.4,32.2,99,30.38,4.0,Calm,Calm,-,N/A,,Clear,0,2013-01-09 10:55:00
6:15 AM,33.3,33.1,99,30.39,4.0,Calm,Calm,-,N/A,,Scattered Clouds,0,2013-01-09 11:15:00
6:35 AM,32.2,32.0,99,30.38,2.5,Calm,Calm,-,N/A,,Clear,0,2013-01-09 11:35:00
6:55 AM,32.2,32.2,100,30.39,3.0,Calm,Calm,-,N/A,,Clear,0,2013-01-09 11:55:00
7:15 AM,32.5,32.4,99,30.40,5.0,Calm,Calm,-,N/A,,Clear,0,2013-01-09 12:15:00
7:35 AM,32.5,32.4,99,30.40,3.0,Calm,Calm,-,N/A,,Mostly Cloudy,0,2013-01-09 12:35:00
7:55 AM,34.9,34.9,100,30.41,2.5,Calm,Calm,-,N/A,,Overcast,0,2013-01-09 12:55:00
8:15 AM,36.5,36.5,100,30.41,2.5,Calm,Calm,-,N/A,,Overcast,0,2013-01-09 13:15:00
8:35 AM,39.0,39.0,100,30.43,4.0,Calm,Calm,-,N/A,,Mostly Cloudy,0,2013-01-09 13:35:00
8:55 AM,41.5,41.4,99,30.44,5.0,Calm,Calm,-,N/A,,Overcast,0,2013-01-09 13:55:00
9:15 AM,42.8,40.5,91,30.44,7.0,Calm,Calm,-,N/A,,Overcast,0,2013-01-09 14:15:00
9:35 AM,42.3,39.6,90,30.44,7.0,Calm,Calm,-,N/A,,Overcast,0,2013-01-09 14:35:00
9:55 AM,44.2,41.0,88,30.44,7.0,SSW,3.5,-,N/A,,Overcast,200,2013-01-09 14:55:00
10:15 AM,46.8,42.1,84,30.44,10.0,SSW,4.6,-,N/A,,Overcast,210,2013-01-09 15:15:00
10:35 AM,49.1,43.0,79,30.44,10.0,SSW,4.6,-,N/A,,Mostly Cloudy,200,2013-01-09 15:35:00
10:55 AM,51.8,44.1,75,30.43,10.0,SSW,5.8,-,N/A,,Scattered Clouds,200,2013-01-09 15:55:00
11:15 AM,54.9,45.5,71,30.41,10.0,SW,5.8,-,N/A,,Clear,220,2013-01-09 16:15:00
11:35 AM,58.6,46.8,65,30.39,10.0,SSW,6.9,-,N/A,,Clear,210,2013-01-09 16:35:00
11:55 AM,60.1,48.0,64,30.39,10.0,SW,6.9,-,N/A,,Clear,230,2013-01-09 16:55:00
12:15 PM,62.6,49.1,61,30.38,10.0,SW,5.8,-,N/A,,Clear,230,2013-01-09 17:15:00
12:35 PM,61.9,49.3,63,30.37,10.0,SW,8.1,-,N/A,,Clear,220,2013-01-09 17:35:00
12:55 PM,62.4,49.5,63,30.37,10.0,SW,9.2,-,N/A,,Clear,230,2013-01-09 17:55:00
1:15 PM,62.8,50.9,65,30.35,10.0,SW,13.8,19.6,N/A,,Scattered Clouds,230,2013-01-09 18:15:00
1:35 PM,62.6,50.9,66,30.36,10.0,WSW,10.4,17.3,N/A,,Scattered Clouds,240,2013-01-09 18:35:00
1:55 PM,63.1,51.1,65,30.36,10.0,WSW,8.1,18.4,N/A,,Clear,240,2013-01-09 18:55:00
2:15 PM,63.0,50.9,65,30.35,10.0,WSW,11.5,19.6,N/A,,Clear,240,2013-01-09 19:15:00
2:35 PM,62.2,50.2,65,30.35,10.0,WSW,9.2,-,N/A,,Scattered Clouds,240,2013-01-09 19:35:00
2:55 PM,61.7,50.4,66,30.36,10.0,WSW,8.1,-,N/A,,Scattered Clouds,240,2013-01-09 19:55:00
3:15 PM,61.7,50.9,68,30.37,10.0,SW,9.2,-,N/A,,Overcast,230,2013-01-09 20:15:00
3:35 PM,61.0,50.4,68,30.37,10.0,WSW,6.9,-,N/A,,Overcast,240,2013-01-09 20:35:00
3:55 PM,61.0,50.4,68,30.38,10.0,WSW,5.8,-,N/A,,Mostly Cloudy,240,2013-01-09 20:55:00
4:15 PM,60.8,50.0,68,30.38,10.0,WSW,4.6,-,N/A,,Clear,250,2013-01-09 21:15:00
4:35 PM,60.3,50.0,69,30.38,10.0,Calm,Calm,-,N/A,,Clear,0,2013-01-09 21:35:00
4:55 PM,59.7,49.6,69,30.37,10.0,Calm,Calm,-,N/A,,Clear,0,2013-01-09 21:55:00
5:15 PM,59.0,49.5,71,30.36,10.0,SSW,4.6,-,N/A,,Clear,200,2013-01-09 22:15:00
5:35 PM,58.6,49.5,72,30.36,10.0,SSW,3.5,-,N/A,,Clear,210,2013-01-09 22:35:00
5:55 PM,57.0,49.3,75,30.36,10.0,SW,5.8,-,N/A,,Clear,220,2013-01-09 22:55:00
6:15 PM,57.2,49.5,75,30.37,10.0,SW,4.6,-,N/A,,Clear,220,2013-01-09 23:15:00
6:35 PM,57.0,49.3,75,30.36,10.0,SW,3.5,-,N/A,,Clear,220,2013-01-09 23:35:00
6:55 PM,56.3,49.3,77,30.37,10.0,Calm,Calm,-,N/A,,Clear,0,2013-01-09 23:55:00
7:15 PM,54.5,49.1,82,30.39,10.0,WSW,3.5,-,N/A,,Clear,250,2013-01-10 00:15:00
7:35 PM,54.9,49.1,81,30.38,10.0,SW,3.5,-,N/A,,Clear,230,2013-01-10 00:35:00
7:55 PM,54.9,49.1,81,30.39,10.0,West,4.6,-,N/A,,Clear,260,2013-01-10 00:55:00
8:15 PM,53.8,48.6,82,30.39,10.0,West,3.5,-,N/A,,Clear,260,2013-01-10 01:15:00
8:35 PM,50.9,47.3,87,30.40,10.0,WSW,4.6,-,N/A,,Clear,240,2013-01-10 01:35:00
8:55 PM,52.7,48.2,85,30.40,10.0,WSW,4.6,-,N/A,,Clear,240,2013-01-10 01:55:00
9:15 PM,51.1,47.8,89,30.41,10.0,WSW,3.5,-,N/A,,Clear,250,2013-01-10 02:15:00
9:35 PM,51.1,47.8,89,30.41,10.0,SW,3.5,-,N/A,,Clear,230,2013-01-10 02:35:00
9:55 PM,48.6,46.6,93,30.41,10.0,Calm,Calm,-,N/A,,Clear,0,2013-01-10 02:55:00
10:15 PM,46.6,45.7,97,30.42,7.0,Calm,Calm,-,N/A,,Clear,0,2013-01-10 03:15:00
10:35 PM,46.4,45.1,95,30.42,7.0,Calm,Calm,-,N/A,,Clear,0,2013-01-10 03:35:00
10:55 PM,46.0,45.5,98,30.43,7.0,Calm,Calm,-,N/A,,Clear,0,2013-01-10 03:55:00
11:15 PM,45.0,44.1,97,30.42,5.0,Calm,Calm,-,N/A,,Clear,0,2013-01-10 04:15:00
11:35 PM,46.2,45.7,98,30.43,7.0,Calm,Calm,-,N/A,,Clear,0,2013-01-10 04:35:00
11:55 PM,46.0,45.3,97,30.43,5.0,Calm,Calm,-,N/A,,Clear,0,2013-01-10 04:55:00